Regional Weather Roundup
Issued by NWS Goodland, KS

Home | Current Version | Previous Version | Graphics & Text | Print | Product List | Glossary On
Versions: 1 2 3 4 5 6 7 8 9 10 11 12 13 14 15 16 17 18 19 20 21 22 23 24 25 26 27 28 29 30 31 32 33 34 35 36 37 38 39 40 41 42 43 44 45 46 47 48 49 50
000
ASUS43 KGLD 211608
RWRGLD

GOODLAND FORECAST AREA HOURLY WEATHER ROUNDUP
NATIONAL WEATHER SERVICE GOODLAND KS
1000 AM MDT MON MAY 21 2018

...OFFICIAL OBSERVATIONS...

CITY           SKY/WX    TMP DP  RH WIND       PRES   REMARKS
GOODLAND KS    PTSUNNY   60  54  80 S21G30    30.05F
HILL CITY KS   SUNNY     63  55  75 S9        30.10F
IMPERIAL NEB   MOSUNNY   62  52  69 S21G30    30.04F
MCCOOK NEB     SUNNY     65  53  65 S14       30.06S
AKRON CO       MOSUNNY   58  51  78 S8        30.02F
BURLINGTON CO  MOSUNNY   64  53  67 S18G29    30.04F
LIMON CO       CLOUDY    70  47  43 S12G17    30.04F
$$

...UNOFFICIAL OBSERVATIONS...

CITY           SKY/WX    TMP DP  RH WIND       PRES   REMARKS
COLBY KS       PTSUNNY   63  54  72 S13G21    30.09F
NORTON KS      SUNNY     64  54  68 SE10      30.08
SHARON SPRINGS   N/A     65  58  79 MISG        N/A
KIT CARSON CO    N/A     62  50  66 MISG        N/A
YUMA CO        FAIR      55  43  62 S12       30.03S
$$



USA.gov is the U.S. government's official web portal to all federal, state and local government web resources and services.